Zurück zum Katalog

SL-14 R/B

AktivPO
NORAD 17912·ROCKET BODY·🇷🇺 Russia

Gestartet Apr 27, 1987 von Plesetsk Cosmodrome

Loading…

Nächste Überflüge (nächste 24 Stunden)

TLE

AktuellSource: Space-Track

Epoche: Sep 14, 2026, 22:05 UTC

1 17912U 87038B   26257.92019244  .00000248  00000-0  25936-4 0  9992
2 17912  82.4998 118.5563 0017694 258.4066 101.5164 14.85496178107323

Verfolge SL-14 R/B in Echtzeit mit AllMySat

Download on the App Store